Weather History for KJKL - January, 2014

Change the Weather History Date:

Monday, January 6, 2014

  Actual Average Record
Temperature  
Mean Temperature 16 °F 35 °F  
Max Temperature 34 °F 43 °F 68 °F (1998)
Min Temperature -3 °F 27 °F -3 °F (2014)
Degree Days  
Heating Degree Days 49 30  
Month to date heating degree days 217 180  
Since 1 July heating degree days 1862 1814  
Cooling Degree Days 0 0  
Month to date cooling degree days 0 0  
Year to date cooling degree days 0 0  
Moisture  
Dew Point 6 °F    
Average Humidity 77    
Maximum Humidity 92    
Minimum Humidity 62    
Precipitation  
Precipitation 0.16 in 0.12 in 2.04 in (1995)
Month to date precipitation 0.87 0.70  
Year to date precipitation 0.87 0.70  
Snow  
Snow 1.90 in 0.20 in 8.50 in (1996)
Month to date snowfall 3.3 1.2  
Since 1 July snowfall 7.6 6.7  
Snow Depth 1.00 in    
Sea Level Pressure  
Sea Level Pressure 30.06 in    
Wind  
Wind Speed 11 mph (West)    
Max Wind Speed 21 mph    
Max Gust Speed 35 mph    
Visibility 4 miles    
Events Fog , Snow    
T = Trace of Precipitation, MM = Missing Value Source: NWS Daily Summary

Daily Weather History Graph

Daily Weather History Graph

Search for Another Location

Airport or City:

Trip Planner

Search our weather history database for the weather conditions in past years. The results will help you decide how hot, cold, wet, or windy it might be!

Date:

Astronomy

Jan. 06, 2014 Rise Set
Actual Time 7:48 AM EST 5:30 PM EST
Civil Twilight 7:19 AM EST 5:59 PM EST
Nautical Twilight 6:46 AM EST 6:31 PM EST
Astronomical Twilight 6:15 AM EST 7:03 PM EST
Moon 11:10 AM EST (1/6) 11:54 PM EST (1/6)
Length of Visible Light 10h 39m
Length of Day
9h 41m
Waxing Crescent, 34% of the Moon is Illuminated
Jan 6
Waxing Crescent
Jan 7
First Quarter
Jan 15
Full
Jan 24
Last Quarter
Jan 30
New

Hourly Weather History & Observations

Time (EST) Temp. Windchill Dew Point Humidity Pressure Visibility Wind Dir Wind Speed Gust Speed Precip Events Conditions
12:06 AM 33.1 °F 23.0 °F 30.0 °F 89% 29.69 in 1.0 mi West 15.0 mph 34.5 mph 0.02 in Snow Light Snow
12:35 AM 32.0 °F 22.1 °F 28.9 °F 88% 29.71 in 0.8 mi West 13.8 mph 27.6 mph 0.04 in Snow Light Snow
12:53 AM 30.9 °F 23.5 °F 28.9 °F 92% 29.73 in 0.2 mi WSW 8.1 mph 33.4 mph 0.08 in Fog , Snow Snow
1:47 AM 28.4 °F 16.2 °F 26.6 °F 93% 29.78 in 1.2 mi WNW 17.3 mph 26.5 mph 0.07 in Snow Light Snow
1:50 AM 28.4 °F 16.6 °F 26.6 °F 93% 29.77 in 2.0 mi West 16.1 mph 28.8 mph 0.07 in Snow Light Snow
1:53 AM 28.9 °F 17.3 °F 26.1 °F 89% 29.79 in 2.5 mi West 16.1 mph 28.8 mph 0.07 in Snow Light Snow
2:01 AM 28.0 °F 16.5 °F 25.0 °F 88% 29.80 in 5.0 mi West 15.0 mph 28.8 mph 0.00 in Snow Light Snow
2:08 AM 28.0 °F 18.1 °F 25.0 °F 88% 29.80 in 7.0 mi West 11.5 mph 26.5 mph 0.00 in   Overcast
2:36 AM 27.0 °F 14.7 °F 24.1 °F 89% 29.82 in 6.0 mi WNW 16.1 mph 23.0 mph 0.00 in   Overcast
2:46 AM 27.0 °F 15.6 °F 24.1 °F 89% 29.84 in 1.8 mi West 13.8 mph 21.9 mph 0.00 in Snow Light Snow
2:53 AM 26.1 °F 15.0 °F 24.1 °F 92% 29.86 in 1.0 mi West 12.7 mph 25.3 mph 0.01 in Snow Light Snow
2:58 AM 26.1 °F 14.5 °F 23.0 °F 88% 29.84 in 2.0 mi WSW 13.8 mph 20.7 mph 0.00 in Snow Light Snow
3:05 AM 25.0 °F 15.5 °F 23.0 °F 92% 29.85 in 6.0 mi West 9.2 mph 26.5 mph 0.00 in   Overcast
3:27 AM 24.1 °F 13.1 °F 21.9 °F 91% 29.87 in 9.0 mi West 11.5 mph 24.2 mph 0.00 in   Overcast
3:53 AM 23.0 °F 11.7 °F 19.9 °F 88% 29.91 in 4.0 mi West 11.5 mph 20.7 mph 0.00 in Snow Light Snow
3:59 AM 23.0 °F 13.1 °F 19.9 °F 88% 29.90 in 1.8 mi West 9.2 mph 20.7 mph 0.00 in Snow Light Snow
4:12 AM 21.9 °F 9.2 °F 19.0 °F 89% 29.91 in 1.2 mi West 13.8 mph 24.2 mph 0.00 in Snow Light Snow
4:39 AM 19.9 °F 8.6 °F 17.1 °F 89% 29.93 in 1.0 mi West 10.4 mph 25.3 mph 0.00 in Snow Light Snow
4:53 AM 19.9 °F 8.6 °F 17.1 °F 89% 29.96 in 0.8 mi WSW 10.4 mph 18.4 mph 0.00 in Snow Light Snow
5:12 AM 19.0 °F 10.0 °F 16.0 °F 88% 29.94 in 1.0 mi Variable 6.9 mph 18.4 mph 0.00 in Snow Light Snow
5:19 AM 19.0 °F 6.8 °F 15.1 °F 85% 29.95 in 1.0 mi West 11.5 mph 20.7 mph 0.01 in Snow Light Snow
5:34 AM 18.0 °F 6.9 °F 14.0 °F 84% 29.96 in 1.2 mi West 9.2 mph 21.9 mph 0.01 in Snow Light Snow
5:44 AM 17.1 °F 5.8 °F 12.9 °F 84% 29.97 in 2.0 mi WSW 9.2 mph 19.6 mph 0.01 in Snow Light Snow
5:53 AM 17.1 °F 3.6 °F 12.0 °F 81% 29.99 in 2.5 mi West 12.7 mph 21.9 mph 0.01 in Snow Light Snow
6:01 AM 16.0 °F 4.4 °F 12.0 °F 84% 29.97 in 3.0 mi West 9.2 mph 24.2 mph 0.00 in Snow Light Snow
6:12 AM 16.0 °F 2.9 °F 12.0 °F 84% 29.98 in 2.0 mi West 11.5 mph 21.9 mph 0.00 in Snow Light Snow
6:28 AM 16.0 °F 3.6 °F 12.0 °F 84% 29.99 in 3.0 mi West 10.4 mph 19.6 mph 0.00 in Snow Light Snow
6:38 AM 16.0 °F 4.4 °F 12.0 °F 84% 29.99 in 1.8 mi WSW 9.2 mph 20.7 mph 0.00 in Snow Light Snow
6:46 AM 16.0 °F 2.9 °F 10.9 °F 81% 30.00 in 1.2 mi West 11.5 mph 18.4 mph 0.00 in Snow Light Snow
6:53 AM 15.1 °F 3.3 °F 10.9 °F 84% 30.02 in 1.8 mi West 9.2 mph 21.9 mph 0.00 in Snow Light Snow
7:01 AM 15.1 °F 4.2 °F 10.9 °F 84% 30.00 in 2.5 mi West 8.1 mph 16.1 mph 0.00 in Snow Light Snow
7:13 AM 14.0 °F 0.5 °F 10.0 °F 84% 30.01 in 1.5 mi WSW 11.5 mph 18.4 mph 0.00 in Snow Light Snow
7:42 AM 14.0 °F 2.9 °F 10.0 °F 84% 30.03 in 1.8 mi West 8.1 mph 17.3 mph 0.00 in Snow Light Snow
7:49 AM 14.0 °F 5.1 °F 10.4 °F 86% 30.03 in 2.0 mi Variable 5.8 mph - 0.00 in Snow Light Snow
7:53 AM 14.0 °F 3.9 °F 10.0 °F 84% 30.05 in 1.8 mi Variable 6.9 mph - 0.00 in Snow Light Snow
7:57 AM 14.0 °F 5.1 °F 10.0 °F 84% 30.03 in 1.5 mi Variable 5.8 mph - 0.00 in Snow Light Snow
8:14 AM 12.9 °F -0.2 °F 9.0 °F 84% 30.04 in 1.0 mi West 10.4 mph 18.4 mph 0.00 in Snow Light Snow
8:19 AM 12.9 °F 0.7 °F 9.0 °F 84% 30.04 in 2.0 mi WSW 9.2 mph 18.4 mph 0.00 in Snow Light Snow
8:26 AM 12.9 °F 3.8 °F 9.0 °F 84% 30.05 in 4.0 mi Variable 5.8 mph - 0.00 in Snow Light Snow
8:39 AM 12.9 °F -0.9 °F 8.1 °F 81% 30.05 in 2.5 mi West 11.5 mph 21.9 mph 0.00 in Snow Light Snow
8:48 AM 12.2 °F - 6.8 °F 79% 30.06 in 3.0 mi North - - 0.00 in Snow Light Snow
8:53 AM 12.0 °F -3.4 °F 7.0 °F 80% 30.10 in 3.0 mi West 13.8 mph 19.6 mph 0.00 in Snow Light Snow
9:00 AM 12.0 °F 0.5 °F 7.0 °F 80% 30.06 in 2.5 mi West 8.1 mph - 0.00 in Snow Light Snow
9:22 AM 10.0 °F -6.5 °F 3.9 °F 76% 30.08 in 1.5 mi West 15.0 mph 24.2 mph 0.00 in Snow Light Snow
9:53 AM 7.0 °F -10.4 °F 1.0 °F 77% 30.14 in 1.8 mi West 15.0 mph 24.2 mph 0.00 in Snow Light Snow
9:58 AM 7.0 °F -10.4 °F 1.0 °F 77% 30.10 in 3.0 mi WNW 15.0 mph 25.3 mph 0.00 in Snow Light Snow
10:16 AM 7.0 °F -9.8 °F -0.9 °F 70% 30.11 in 10.0 mi West 13.8 mph 25.3 mph 0.00 in   Overcast
10:53 AM 6.1 °F -10.9 °F -2.9 °F 67% 30.17 in 10.0 mi West 13.8 mph 29.9 mph 0.00 in   Overcast
11:29 AM 6.1 °F -9.5 °F -2.0 °F 69% 30.11 in 9.0 mi West 11.5 mph 23.0 mph N/A   Overcast
11:53 AM 5.0 °F -12.3 °F -4.0 °F 66% 30.17 in 4.0 mi WNW 13.8 mph 24.2 mph 0.00 in Snow Light Snow
12:25 PM 6.1 °F -9.5 °F -2.0 °F 69% 30.10 in 1.8 mi West 11.5 mph 23.0 mph 0.00 in Snow Light Snow
12:30 PM 6.1 °F -8.7 °F -0.9 °F 73% 30.10 in 0.8 mi West 10.4 mph 23.0 mph 0.00 in Snow Light Snow
12:42 PM 5.0 °F -9.1 °F -2.9 °F 70% 30.11 in 1.8 mi WSW 9.2 mph 21.9 mph 0.00 in Snow Light Snow
12:45 PM 5.0 °F -8.1 °F -2.9 °F 70% 30.11 in 3.0 mi West 8.1 mph 21.9 mph 0.00 in Snow Light Snow
12:53 PM 3.9 °F -15.0 °F -5.1 °F 66% 30.17 in 6.0 mi WNW 16.1 mph 23.0 mph 0.00 in   Haze
1:53 PM 6.1 °F -9.5 °F -4.0 °F 63% 30.19 in 10.0 mi West 11.5 mph 18.4 mph 0.00 in   Overcast
2:53 PM 5.0 °F -10.0 °F -6.0 °F 61% 30.22 in 10.0 mi West 10.4 mph 27.6 mph N/A   Overcast
3:13 PM 3.9 °F -13.7 °F -7.1 °F 60% 30.16 in 10.0 mi West 13.8 mph 27.6 mph N/A   Mostly Cloudy
3:21 PM 3.9 °F -8.2 °F -7.1 °F 60% 30.17 in 9.0 mi Variable 6.9 mph 24.2 mph N/A   Overcast
3:36 PM 3.9 °F -6.9 °F -8.0 °F 58% 30.17 in 10.0 mi WSW 5.8 mph 19.6 mph N/A   Overcast
3:53 PM 3.9 °F -8.2 °F -7.1 °F 60% 30.25 in 10.0 mi WSW 6.9 mph - N/A   Overcast
4:12 PM 3.0 °F -10.5 °F -6.0 °F 66% 30.19 in 6.0 mi West 8.1 mph - N/A   Haze
4:35 PM 1.9 °F -14.7 °F -6.0 °F 69% 30.20 in 1.8 mi West 11.5 mph 25.3 mph 0.00 in Snow Light Snow
4:43 PM 1.9 °F -12.9 °F -8.0 °F 63% 30.20 in 3.0 mi West 9.2 mph 25.3 mph 0.00 in Snow Light Snow
4:53 PM 1.0 °F -16.6 °F -9.9 °F 60% 30.28 in 10.0 mi West 12.7 mph 21.9 mph 0.00 in   Scattered Clouds
5:25 PM -0.0 °F -14.2 °F -11.0 °F 60% 30.22 in 10.0 mi West 8.1 mph 17.3 mph N/A   Mostly Cloudy
5:53 PM -0.0 °F -14.2 °F -9.0 °F 66% 30.31 in 10.0 mi West 8.1 mph - N/A   Scattered Clouds
6:36 PM -0.9 °F -17.4 °F -9.0 °F 69% 30.25 in 10.0 mi West 10.4 mph - N/A   Mostly Cloudy
6:53 PM -0.9 °F -16.4 °F -9.0 °F 69% 30.34 in 9.0 mi West 9.2 mph 18.4 mph N/A   Overcast
7:53 PM -0.9 °F -11.0 °F -9.0 °F 69% 30.36 in 10.0 mi Variable 4.6 mph 16.1 mph N/A   Overcast
8:49 PM -0.4 °F -14.7 °F -7.6 °F 72% 30.30 in 2.5 mi West 8.1 mph - 0.00 in Snow Light Snow
8:53 PM -0.9 °F -14.1 °F -7.1 °F 75% 30.38 in 2.5 mi Variable 6.9 mph - 0.00 in Snow Light Snow
9:11 PM -0.9 °F -18.3 °F -8.0 °F 72% 30.30 in 5.0 mi West 11.5 mph 20.7 mph 0.00 in   Haze
9:37 PM -2.0 °F -15.4 °F -11.0 °F 66% 30.31 in 10.0 mi WSW 6.9 mph 18.4 mph 0.00 in   Partly Cloudy
9:53 PM -2.0 °F -17.7 °F -11.0 °F 66% 30.40 in 10.0 mi West 9.2 mph 20.7 mph 0.00 in   Clear
10:53 PM -2.9 °F -16.5 °F -11.0 °F 68% 30.41 in 10.0 mi Variable 6.9 mph - N/A   Clear
11:38 PM -2.9 °F -18.8 °F -9.9 °F 72% 30.32 in 6.0 mi WSW 9.2 mph 16.1 mph N/A   Haze
11:53 PM -2.9 °F -17.7 °F -9.9 °F 72% 30.43 in 10.0 mi WSW 8.1 mph - N/A   Overcast